Tracking 19245 objects as of 15-Aug-2018
HD Live streaming from Space Station
objects crossing your sky now

SL-6 R/B(2)

Track SL-6 R/B(2) now!


NORAD ID: 24764
Int'l Code: 1997-015D
Perigee: 2,511.7 km
Apogee: 37,412.2 km
Inclination: 66.5 °
Period: 708.8 minutes
Semi major axis: 26332 km
RCS: 5.7641 m2 (large)
Launch date: April 9, 1997
Source: Commonwealth of Independent States (former USSR) (CIS)
Launch site: PLESETSK MISSILE AND SPACE COMPLEX (PKMTR)

Note: This is a ROCKET BODY
aabbcc
Your satellite tracking list
Your tracking list is empty




NASA's NSSDC Master Catalog

Two Line Element Set (TLE):
1 24764U 97015D   18225.51496257 -.00000705 +00000-0 +00000-0 0  9995
2 24764 066.5456 333.9270 6626782 177.9176 152.1853 02.03167700158385
Source of the keplerian elements: AFSPC